Location: La Fredeussais
(48.1780°N, 1.3980°W)
Time: 04:12:53
(UTC+00:00)

Sich 1 - Pass Details

Date: 09 May 2021
Orbit: 595 x 624 km, 82.5° (Epoch: 13 June)

Event Time Altitude Azimuth Distance (km) Brightness Sun altitude
Rises 20:46:24 0° 347° (NNW) 2,864 7.5 -11.1°
Reaches altitude 10° 20:48:38 10° 344° (NNW) 1,960 6.6 -11.4°
Maximum altitude 20:52:54 61° 265° (W) 695 3.5 -11.9°
Drops below altitude 10° 20:57:10 10° 185° (S) 1,962 5.3 -12.4°
Enters shadow 20:57:46 - 184° (S) 2,197 5.5 -12.5°
